| time (UTC) | temp F | wind direction | speed MPH | gust MPH | rain 1hr in | rain 24hr in | rain mn in | humidity % | barometer mb |
| 20260830202823 | 107 | 303 | 1.0 | 4.0 | 0.00 | 0.00 | 0.00 | 28 | 1011.9 |
| 20260830201816 | 107 | 303 | 1.0 | 3.0 | 0.00 | 0.00 | 0.00 | 29 | 1012.1 |
| 20260830200830 | 104 | 303 | 1.0 | 3.0 | 0.00 | 0.00 | 0.00 | 30 | 1012.2 |
| 20260830195843 | 105 | 303 | 0.0 | 3.0 | 0.00 | 0.00 | 0.00 | 29 | 1012.3 |
| 20260830194815 | 104 | 303 | 2.0 | 8.0 | 0.00 | 0.00 | 0.00 | 30 | 1012.4 |
| 20260830193833 | 103 | 303 | 2.0 | 5.0 | 0.00 | 0.00 | 0.00 | 31 | 1012.5 |
| 20260830192825 | 105 | 303 | 0.0 | 6.0 | 0.00 | 0.00 | 0.00 | 33 | 1012.7 |
| 20260830191817 | 103 | 303 | 1.0 | 4.0 | 0.00 | 0.00 | 0.00 | 32 | 1012.9 |
| 20260830190829 | 104 | 303 | 1.0 | 4.0 | 0.00 | 0.00 | 0.00 | 30 | 1013.2 |
| 20260830185822 | 104 | 303 | 1.0 | 5.0 | 0.00 | 0.00 | 0.00 | 32 | 1013.3 |
| 20260830184819 | 105 | 303 | 0.0 | 4.0 | 0.00 | 0.00 | 0.00 | 32 | 1013.4 |
| 20260830183814 | 103 | 303 | 1.0 | 4.0 | 0.00 | 0.00 | 0.00 | 32 | 1013.6 |
| 20260830182826 | 103 | 303 | 2.0 | 5.0 | 0.00 | 0.00 | 0.00 | 33 | 1013.8 |
| 20260830181817 | 102 | 303 | 1.0 | 9.0 | 0.00 | 0.00 | 0.00 | 34 | 1014.0 |
| 20260830180829 | 101 | 303 | 2.0 | 5.0 | 0.00 | 0.00 | 0.00 | 34 | 1014.2 |
| 20260830175827 | 102 | 303 | 1.0 | 4.0 | 0.00 | 0.00 | 0.00 | 34 | 1014.4 |
| 20260830174820 | 100 | 303 | 1.0 | 5.0 | 0.00 | 0.00 | 0.00 | 34 | 1014.4 |
| 20260830173854 | 101 | 303 | 0.0 | 8.0 | 0.00 | 0.00 | 0.00 | 34 | 1014.3 |
| 20260830172826 | 102 | 303 | 2.0 | 8.0 | 0.00 | 0.00 | 0.00 | 33 | 1014.5 |
| 20260830171838 | 101 | 303 | 0.0 | 3.0 | 0.00 | 0.00 | 0.00 | 36 | 1014.5 |
| 20260830170815 | 100 | 303 | 1.0 | 4.0 | 0.00 | 0.00 | 0.00 | 36 | 1014.5 |
| 20260830165847 | 100 | 303 | 3.0 | 5.0 | 0.00 | 0.00 | 0.00 | 34 | 1014.4 |
| 20260830164820 | 99 | 303 | 0.0 | 6.0 | 0.00 | 0.00 | 0.00 | 36 | 1014.5 |
| 20260830163832 | 98 | 303 | 1.0 | 4.0 | 0.00 | 0.00 | 0.00 | 38 | 1014.4 |
| 20260830162826 | 97 | 303 | 1.0 | 3.0 | 0.00 | 0.00 | 0.00 | 38 | 1014.5 |
| 20260830161820 | 96 | 303 | 0.0 | 4.0 | 0.00 | 0.00 | 0.00 | 39 | 1014.5 |
| 20260830160816 | 95 | 303 | 1.0 | 6.0 | 0.00 | 0.00 | 0.00 | 40 | 1014.5 |
| 20260830155827 | 94 | 303 | 2.0 | 6.0 | 0.00 | 0.00 | 0.00 | 41 | 1014.5 |
| 20260830154821 | 93 | 303 | 3.0 | 8.0 | 0.00 | 0.00 | 0.00 | 42 | 1014.5 |
| 20260830153814 | 94 | 303 | 3.0 | 10.0 | 0.00 | 0.00 | 0.00 | 41 | 1014.3 |
| 20260830152828 | 94 | 303 | 2.0 | 4.0 | 0.00 | 0.00 | 0.00 | 41 | 1014.5 |
| 20260830151841 | 93 | 303 | 0.0 | 6.0 | 0.00 | 0.00 | 0.00 | 42 | 1014.5 |
| 20260830150838 | 93 | 303 | 0.0 | 3.0 | 0.00 | 0.00 | 0.00 | 44 | 1014.4 |
| 20260830145852 | 91 | 303 | 2.0 | 6.0 | 0.00 | 0.00 | 0.00 | 44 | 1014.5 |
| 20260830144824 | 90 | 303 | 2.0 | 8.0 | 0.00 | 0.00 | 0.00 | 46 | 1014.7 |
| 20260830143819 | 90 | 303 | 1.0 | 8.0 | 0.00 | 0.00 | 0.00 | 47 | 1014.6 |
| 20260830142832 | 89 | 303 | 1.0 | 8.0 | 0.00 | 0.00 | 0.00 | 48 | 1014.5 |
| 20260830141829 | 87 | 303 | 2.0 | 6.0 | 0.00 | 0.00 | 0.00 | 50 | 1014.4 |
| 20260830140823 | 86 | 303 | 3.0 | 5.0 | 0.00 | 0.00 | 0.00 | 52 | 1014.3 |
| 20260830135817 | 85 | 303 | 2.0 | 4.0 | 0.00 | 0.00 | 0.00 | 53 | 1014.3 |
| 20260830134829 | 85 | 303 | 2.0 | 4.0 | 0.00 | 0.00 | 0.00 | 52 | 1014.2 |
| 20260830133823 | 85 | 303 | 2.0 | 4.0 | 0.00 | 0.00 | 0.00 | 52 | 1014.3 |
| 20260830132820 | 85 | 303 | 0.0 | 5.0 | 0.00 | 0.00 | 0.00 | 51 | 1014.2 |
| 20260830131832 | 86 | 303 | 1.0 | 4.0 | 0.00 | 0.00 | 0.00 | 50 | 1014.0 |
| 20260830130826 | 86 | 303 | 0.0 | 2.0 | 0.00 | 0.00 | 0.00 | 49 | 1013.8 |
| 20260830125819 | 86 | 303 | 0.0 | 2.0 | 0.00 | 0.00 | 0.00 | 49 | 1013.4 |
| 20260830124833 | 86 | 303 | 2.0 | 6.0 | 0.00 | 0.00 | 0.00 | 48 | 1013.2 |
| 20260830123832 | 87 | 303 | 1.0 | 6.0 | 0.00 | 0.00 | 0.00 | 47 | 1013.1 |
| 20260830122824 | 87 | 303 | 1.0 | 4.0 | 0.00 | 0.00 | 0.00 | 47 | 1013.0 |
| 20260830121816 | 87 | 303 | 1.0 | 4.0 | 0.00 | 0.00 | 0.00 | 47 | 1012.8 |
| 20260830120829 | 87 | 303 | 1.0 | 3.0 | 0.00 | 0.00 | 0.00 | 48 | 1012.5 |
| 20260830115822 | 86 | 303 | 1.0 | 4.0 | 0.00 | 0.00 | 0.00 | 48 | 1012.5 |
| 20260830114821 | 85 | 303 | 1.0 | 4.0 | 0.00 | 0.00 | 0.00 | 49 | 1012.6 |
| 20260830113815 | 85 | 303 | 0.0 | 3.0 | 0.00 | 0.00 | 0.00 | 52 | 1012.5 |
| 20260830112829 | 85 | 303 | 0.0 | 0.0 | 0.00 | 0.00 | 0.00 | 53 | 1012.5 |
| 20260830111820 | 85 | 303 | 0.0 | 1.0 | 0.00 | 0.00 | 0.00 | 52 | 1012.5 |
| 20260830110814 | 85 | 303 | 0.0 | 1.0 | 0.00 | 0.00 | 0.00 | 52 | 1012.5 |
| 20260830105829 | 86 | 303 | 0.0 | 1.0 | 0.00 | 0.00 | 0.00 | 51 | 1012.5 |
| 20260830104821 | 87 | 303 | 0.0 | 3.0 | 0.00 | 0.00 | 0.00 | 50 | 1012.6 |
| 20260830103814 | 87 | 303 | 0.0 | 0.0 | 0.00 | 0.00 | 0.00 | 50 | 1012.6 |
| 20260830102830 | 88 | 303 | 0.0 | 2.0 | 0.00 | 0.00 | 0.00 | 49 | 1012.5 |
| 20260830101822 | 88 | 303 | 0.0 | 2.0 | 0.00 | 0.00 | 0.00 | 49 | 1012.4 |
| 20260830100839 | 88 | 303 | 0.0 | 3.0 | 0.00 | 0.00 | 0.00 | 48 | 1012.3 |
| 20260830095831 | 88 | 303 | 0.0 | 2.0 | 0.00 | 0.00 | 0.00 | 48 | 1012.2 |
| 20260830094824 | 88 | 303 | 2.0 | 6.0 | 0.00 | 0.00 | 0.00 | 47 | 1012.1 |
| 20260830093837 | 89 | 303 | 1.0 | 5.0 | 0.00 | 0.00 | 0.00 | 47 | 1011.9 |
| 20260830092827 | 89 | 303 | 1.0 | 4.0 | 0.00 | 0.00 | 0.00 | 46 | 1011.7 |
| 20260830091824 | 89 | 303 | 0.0 | 4.0 | 0.00 | 0.00 | 0.00 | 46 | 1011.6 |
| 20260830090816 | 89 | 303 | 1.0 | 3.0 | 0.00 | 0.00 | 0.00 | 45 | 1011.6 |
| 20260830085832 | 89 | 303 | 0.0 | 2.0 | 0.00 | 0.00 | 0.00 | 45 | 1011.5 |
| 20260830084823 | 89 | 303 | 0.0 | 3.0 | 0.00 | 0.00 | 0.00 | 45 | 1011.7 |
| 20260830083817 | 89 | 303 | 0.0 | 1.0 | 0.00 | 0.00 | 0.00 | 44 | 1011.7 |
| 20260830082814 | 89 | 303 | 0.0 | 5.0 | 0.00 | 0.00 | 0.00 | 44 | 1011.7 |
| 20260830081826 | 89 | 303 | 0.0 | 2.0 | 0.00 | 0.00 | 0.00 | 43 | 1011.6 |
| 20260830080818 | 89 | 303 | 0.0 | 0.0 | 0.00 | 0.00 | 0.00 | 43 | 1011.4 |
| 20260830075831 | 89 | 303 | 0.0 | 1.0 | 0.00 | 0.00 | 0.00 | 43 | 1011.3 |
| 20260830074847 | 90 | 303 | 0.0 | 1.0 | 0.00 | 0.00 | 0.00 | 42 | 1011.2 |
| 20260830073839 | 90 | 303 | 0.0 | 0.0 | 0.00 | 0.00 | 0.00 | 42 | 1011.1 |
| 20260830072817 | 90 | 303 | 0.0 | 8.0 | 0.00 | 0.00 | 0.00 | 41 | 1011.1 |
| 20260830071850 | 90 | 303 | 3.0 | 10.0 | 0.00 | 0.00 | 0.00 | 42 | 1011.3 |
| 20260830070843 | 89 | 303 | 4.0 | 8.0 | 0.00 | 0.00 | 0.00 | 44 | 1011.5 |
| 20260830065816 | 89 | 303 | 2.0 | 4.0 | 0.00 | 0.00 | 0.00 | 44 | 1011.8 |
| 20260830064830 | 88 | 303 | 3.0 | 8.0 | 0.00 | 0.00 | 0.00 | 46 | 1011.7 |
| 20260830063824 | 88 | 303 | 3.0 | 8.0 | 0.00 | 0.00 | 0.00 | 47 | 1011.4 |
| 20260830062822 | 88 | 303 | 4.0 | 12.0 | 0.00 | 0.00 | 0.00 | 48 | 1011.4 |
| 20260830061834 | 88 | 303 | 5.0 | 14.0 | 0.00 | 0.00 | 0.00 | 48 | 1011.7 |
| 20260830060826 | 88 | 303 | 4.0 | 16.0 | 0.00 | 0.00 | 0.00 | 48 | 1011.8 |
| 20260830055820 | 89 | 303 | 5.0 | 14.0 | 0.00 | 0.00 | 0.00 | 48 | 1012.0 |
| 20260830054852 | 90 | 303 | 5.0 | 12.0 | 0.00 | 0.00 | 0.00 | 47 | 1012.1 |
| 20260830053848 | 91 | 303 | 4.0 | 13.0 | 0.00 | 0.00 | 0.00 | 46 | 1012.2 |
| 20260830052841 | 92 | 303 | 5.0 | 11.0 | 0.00 | 0.00 | 0.00 | 43 | 1012.3 |
| 20260830051831 | 93 | 303 | 3.0 | 12.0 | 0.00 | 0.00 | 0.00 | 41 | 1012.2 |
| 20260830050844 | 93 | 303 | 4.0 | 12.0 | 0.00 | 0.00 | 0.00 | 39 | 1012.3 |
| 20260830045855 | 96 | 303 | 3.0 | 9.0 | 0.00 | 0.00 | 0.00 | 36 | 1012.1 |
| 20260830044826 | 96 | 303 | 5.0 | 14.0 | 0.00 | 0.00 | 0.00 | 35 | 1012.0 |
| 20260830043822 | 96 | 303 | 2.0 | 6.0 | 0.00 | 0.00 | 0.00 | 36 | 1011.7 |
| 20260830042853 | 97 | 303 | 1.0 | 10.0 | 0.00 | 0.00 | 0.00 | 35 | 1011.1 |
| 20260830041825 | 98 | 303 | 3.0 | 12.0 | 0.00 | 0.00 | 0.00 | 33 | 1010.8 |
| 20260830040818 | 100 | 303 | 3.0 | 14.0 | 0.00 | 0.00 | 0.00 | 29 | 1010.7 |
| 20260830035830 | 102 | 303 | 2.0 | 6.0 | 0.00 | 0.00 | 0.00 | 27 | 1010.5 |
| 20260830034824 | 102 | 303 | 2.0 | 4.0 | 0.00 | 0.00 | 0.00 | 27 | 1009.8 |